Location: ???? ?????
(37.9132°N, 22.9869°E)
Time: 10:46:31
(UTC+00:00)

NOSS 3-2 (C) - Pass Details

Date: 04 August 2024
Orbit: 707 x 1504 km, 63.4° (Epoch: 11 August)

Event Time Altitude Azimuth Distance (km) Brightness Sun altitude
Rises 20:09:27 0° 330° (NNW) 3,959 8.0 -25.5°
Reaches altitude 10° 20:12:04 10° 336° (NNW) 3,107 7.1 -25.8°
Maximum altitude 20:19:33 53° 52° (NE) 1,596 4.5 -26.7°
Enters shadow 20:22:12 41° 101° (E) 1,915 4.6 -27.0°
